This is the latest recevied weather packets stored in our database for station/object DG4MND-4. If no packets are shown the sender has not sent any weather packets the latest 10 day(s).
| Time | Temp. | Humidity | Pressure | Rain* | Wind** | Luminosity | Snow |
|---|---|---|---|---|---|---|---|
| 1777459857 | 16.11° C | 46% | 1019.3 hPa | 0 mm | - | - | - |
| 1777459254 | 16.11° C | 46% | 1019.4 hPa | 0 mm | - | - | - |
| 1777458651 | 16.11° C | 47% | 1019.5 hPa | 0 mm | - | - | - |
| 1777458047 | 16.11° C | 47% | 1019.4 hPa | 0 mm | - | - | - |
| 1777457443 | 15.56° C | 47% | 1019.5 hPa | 0 mm | - | - | - |
| 1777456840 | 15° C | 50% | 1019.5 hPa | 0 mm | - | - | - |
| 1777456236 | 15° C | 50% | 1019.6 hPa | 0 mm | - | - | - |
| 1777455633 | 14.44° C | 50% | 1019.7 hPa | 0 mm | - | - | - |
| 1777455029 | 15° C | 53% | 1019.6 hPa | 0 mm | - | - | - |
| 1777454426 | 13.89° C | 55% | 1019.6 hPa | 0 mm | - | - | - |
| 1777453822 | 13.33° C | 55% | 1019.6 hPa | 0 mm | - | - | - |
| 1777453222 | 12.78° C | 57% | 1019.6 hPa | 0 mm | - | - | - |
| 1777452615 | 12.22° C | 60% | 1019.7 hPa | 0 mm | - | - | - |
| 1777452072 | 11.11° C | 62% | 1019.6 hPa | 0 mm | - | - | - |
| 1777451468 | 11.11° C | 61% | 1019.5 hPa | 0 mm | - | - | - |
| 1777450866 | 11.11° C | 61% | 1019.4 hPa | 0 mm | - | - | - |
| 1777450265 | 11.11° C | 61% | 1019.6 hPa | 0 mm | - | - | - |
| 1777449659 | 11.11° C | 61% | 1019.4 hPa | 0 mm | - | - | - |
| 1777449055 | 10.56° C | 61% | 1019.4 hPa | 0 mm | - | - | - |
| 1777448457 | 10.56° C | 61% | 1019.3 hPa | 0 mm | - | - | - |
| 1777447851 | 10.56° C | 62% | 1019.2 hPa | 0 mm | - | - | - |
| 1777447245 | 10° C | 63% | 1019.2 hPa | 0 mm | - | - | - |
| 1777446644 | 10° C | 63% | 1019.2 hPa | 0 mm | - | - | - |
| 1777446038 | 10° C | 63% | 1019.2 hPa | 0 mm | - | - | - |
| 1777445438 | 10° C | 63% | 1019.1 hPa | 0 mm | - | - | - |
* Rain latest hour (hover to see other rain measurements)
** Current wind speed in m/s (hover to see current wind gust speed)